| time (UTC) | temp F | wind direction | speed MPH | gust MPH | rain 1hr in | rain 24hr in | rain mn in | humidity % | barometer mb |
| 20260505193651 | 0 | 0.0 | 0.0 | 0.00 | 0.00 | 0.00 | |||
| 20260505190651 | 0 | 0.0 | 0.0 | 0.00 | 0.00 | 0.00 | |||
| 20260505183650 | 0 | 0.0 | 0.0 | 0.00 | 0.00 | 0.00 | |||
| 20260505180650 | 0 | 0.0 | 0.0 | 0.00 | 0.00 | 0.00 | |||
| 20260505173650 | 0 | 0.0 | 0.0 | 0.00 | 0.00 | 0.00 | |||
| 20260505170649 | 0 | 0.0 | 0.0 | 0.00 | 0.00 | 0.00 | |||
| 20260505163649 | 0 | 0.0 | 0.0 | 0.00 | 0.00 | 0.00 | |||
| 20260505160649 | 0 | 0.0 | 0.0 | 0.00 | 0.00 | 0.00 | |||
| 20260505150648 | 0 | 0.0 | 0.0 | 0.00 | 0.00 | 0.00 | |||
| 20260505122834 | 63 | 0.0 | 0.0 | 0.00 | 0.00 | 0.00 | 99 | ||
| 20260505115838 | 63 | 0.0 | 0.0 | 0.00 | 0.00 | 0.00 | 99 | ||
| 20260505112833 | 63 | 0.0 | 0.0 | 0.00 | 0.00 | 0.00 | 99 | ||
| 20260505095832 | 63 | 0.0 | 0.0 | 0.00 | 0.00 | 0.00 | 99 | ||
| 20260505092832 | 63 | 0.0 | 0.0 | 0.00 | 0.00 | 0.00 | 99 | 1011.6 | |
| 20260505085832 | 63 | 0.0 | 0.0 | 0.00 | 0.00 | 0.00 | 99 | 999.6 | |
| 20260505082831 | 63 | 0.0 | 0.0 | 0.00 | 0.00 | 0.00 | 99 | 1011.0 | |
| 20260505075831 | 60 | 0.0 | 0.0 | 0.00 | 0.00 | 0.00 | 99 | 1011.3 | |
| 20260505072831 | 61 | 0.0 | 0.0 | 0.00 | 0.00 | 0.00 | 99 | 1010.5 | |
| 20260505065830 | 62 | 0.0 | 0.0 | 0.00 | 0.00 | 0.00 | 99 | 1010.3 | |
| 20260505062830 | 60 | 0.0 | 0.0 | 0.00 | 0.00 | 0.00 | 99 | 1010.1 | |
| 20260505055829 | 60 | 0.0 | 0.0 | 0.00 | 0.00 | 0.00 | 99 | 1009.8 | |
| 20260505052829 | 63 | 0.0 | 0.0 | 0.00 | 0.00 | 0.00 | 99 | 1009.6 | |
| 20260505035352 | 57 | 0.0 | 0.0 | 0.00 | 0.00 | 0.00 | 99 | 1008.2 | |
| 20260505032351 | 57 | 0.0 | 0.0 | 0.00 | 0.00 | 0.00 | 99 | 1009.7 | |
| 20260505025351 | 58 | 0.0 | 0.0 | 0.00 | 0.00 | 0.00 | 99 | 1011.0 | |
| 20260505022351 | 58 | 0.0 | 0.0 | 0.00 | 0.00 | 0.00 | 99 | 1010.5 | |
| 20260505015350 | 58 | 0.0 | 0.0 | 0.00 | 0.00 | 0.00 | 99 | 1009.6 | |
| 20260505012350 | 59 | 0.0 | 0.0 | 0.00 | 0.00 | 0.00 | 99 | 1009.6 | |
| 20260505005350 | 60 | 0.0 | 0.0 | 0.00 | 0.00 | 0.00 | 99 | 1009.3 | |
| 20260505002349 | 61 | 0.0 | 0.0 | 0.00 | 0.00 | 0.00 | 99 | 1010.4 | |
| 20260504235349 | 60 | 0.0 | 0.0 | 0.00 | 0.00 | 0.00 | 99 | 1010.1 | |
| 20260504232349 | 61 | 0.0 | 0.0 | 0.00 | 0.00 | 0.00 | 99 | 1011.2 | |
| 20260504225348 | 61 | 0.0 | 0.0 | 0.00 | 0.00 | 0.00 | 99 | 1012.7 | |
| 20260504222348 | 61 | 0.0 | 0.0 | 0.00 | 0.00 | 0.00 | 99 | 1001.6 | |
| 20260504215348 | 63 | 0.0 | 0.0 | 0.00 | 0.00 | 0.00 | 99 | 1014.4 | |
| 20260504212347 | 62 | 0.0 | 0.0 | 0.00 | 0.00 | 0.00 | 99 | 1015.2 | |
| 20260504205347 | 62 | 0.0 | 0.0 | 0.00 | 0.00 | 0.00 | 99 | 1015.7 | |
| 20260504202347 | 63 | 0.0 | 0.0 | 0.00 | 0.00 | 0.00 | 99 | 1015.6 | |
| 20260504195346 | 63 | 0.0 | 0.0 | 0.00 | 0.00 | 0.00 | 99 | 1015.9 |